Hourly Weather Santa Clara

Today, 12 May, Wednesday

Time Temperature Precipitation Wind Pressure Humidity
00:00 +22°C° 0 mm 3 mps 612 mmHg 41%
01:00 +22°C° 0 mm 3 mps 612 mmHg 41%
02:00 +21°C° 0 mm 3 mps 612 mmHg 41%
03:00 +21°C° 0 mm 3 mps 612 mmHg 45%
04:00 +20°C° 0 mm 3 mps 613 mmHg 48%
05:00 +19°C° 0 mm 3 mps 613 mmHg 52%
06:00 +20°C° 0 mm 3 mps 613 mmHg 49%
07:00 +21°C° 0 mm 4 mps 614 mmHg 46%
08:00 +22°C° 0 mm 4 mps 615 mmHg 44%
09:00 +23°C° 0 mm 5 mps 615 mmHg 39%
10:00 +26°C° 0 mm 5 mps 615 mmHg 34%
11:00 +27°C° 0 mm 5 mps 615 mmHg 30%
12:00 +28°C° 0 mm 5 mps 615 mmHg 28%
13:00 +28°C° 0 mm 5 mps 615 mmHg 27%
14:00 +28°C° 0 mm 5 mps 614 mmHg 26%
15:00 +28°C° 0 mm 5 mps 614 mmHg 27%
16:00 +27°C° 0 mm 5 mps 614 mmHg 28%
17:00 +27°C° 0 mm 5 mps 614 mmHg 29%
18:00 +26°C° 0 mm 5 mps 614 mmHg 33%
19:00 +25°C° 0 mm 5 mps 614 mmHg 37%
20:00 +23°C° 0 mm 5 mps 614 mmHg 42%
21:00 +22°C° 0.2 mm 5 mps 614 mmHg 46%
22:00 +21°C° 0.2 mm 4 mps 614 mmHg 50%
23:00 +20°C° 0.2 mm 4 mps 614 mmHg 54%

Tomorrow, 13 May, Thursday

Time Temperature Precipitation Wind Pressure Humidity
00:00 +20°C° 0 mm 3 mps 614 mmHg 55%
01:00 +19°C° 0 mm 2 mps 614 mmHg 57%
02:00 +20°C° 0 mm 1 mps 613 mmHg 58%
03:00 +19°C° 0 mm 1 mps 613 mmHg 59%
04:00 +18°C° 0 mm 2 mps 614 mmHg 61%
05:00 +18°C° 0 mm 3 mps 614 mmHg 62%
06:00 +19°C° 0 mm 3 mps 614 mmHg 59%
07:00 +20°C° 0 mm 3 mps 615 mmHg 57%
08:00 +20°C° 0 mm 4 mps 616 mmHg 55%
09:00 +22°C° 0 mm 4 mps 616 mmHg 50%
10:00 +23°C° 0 mm 4 mps 616 mmHg 45%
11:00 +26°C° 0 mm 4 mps 616 mmHg 40%
12:00 +25°C° 0.2 mm 4 mps 616 mmHg 42%
13:00 +23°C° 0.2 mm 4 mps 615 mmHg 45%
14:00 +23°C° 0.2 mm 4 mps 614 mmHg 47%
15:00 +23°C° 0.1 mm 4 mps 614 mmHg 45%
16:00 +25°C° 0.1 mm 4 mps 614 mmHg 42%
17:00 +25°C° 0.1 mm 4 mps 613 mmHg 39%
18:00 +24°C° 0.2 mm 3 mps 614 mmHg 44%
19:00 +22°C° 0.2 mm 3 mps 614 mmHg 49%
20:00 +21°C° 0.2 mm 3 mps 614 mmHg 53%
21:00 +20°C° 1.6 mm 2 mps 614 mmHg 62%
22:00 +18°C° 1.6 mm 2 mps 614 mmHg 70%
23:00 +17°C° 1.6 mm 2 mps 614 mmHg 78%

Day after tomorrow, 14 May, Friday

Time Temperature Precipitation Wind Pressure Humidity
00:00 +17°C° 2.2 mm 2 mps 614 mmHg 79%
01:00 +17°C° 2.2 mm 2 mps 613 mmHg 80%
02:00 +16°C° 2.2 mm 2 mps 613 mmHg 80%
03:00 +17°C° 0.1 mm 2 mps 613 mmHg 79%
04:00 +17°C° 0.1 mm 2 mps 613 mmHg 78%
05:00 +17°C° 0.1 mm 2 mps 613 mmHg 77%
06:00 +18°C° 0 mm 2 mps 614 mmHg 72%
07:00 +19°C° 0 mm 3 mps 614 mmHg 67%
08:00 +20°C° 0 mm 3 mps 615 mmHg 62%
09:00 +21°C° 0 mm 3 mps 615 mmHg 55%
10:00 +24°C° 0 mm 2 mps 615 mmHg 49%
11:00 +25°C° 0 mm 2 mps 615 mmHg 42%
12:00 +26°C° 0 mm 2 mps 614 mmHg 40%
13:00 +26°C° 0 mm 2 mps 614 mmHg 37%
14:00 +27°C° 0 mm 1 mps 614 mmHg 34%
15:00 +27°C° 0.1 mm 2 mps 613 mmHg 35%
16:00 +27°C° 0.1 mm 3 mps 613 mmHg 36%
17:00 +26°C° 0.1 mm 4 mps 613 mmHg 37%
18:00 +26°C° 0 mm 3 mps 613 mmHg 39%
19:00 +25°C° 0 mm 2 mps 613 mmHg 41%
20:00 +25°C° 0 mm 1 mps 613 mmHg 44%
21:00 +23°C° 0.2 mm 2 mps 613 mmHg 50%
22:00 +21°C° 0.2 mm 2 mps 613 mmHg 57%
23:00 +20°C° 0.2 mm 3 mps 613 mmHg 63%

15 May, Saturday

Time Temperature Precipitation Wind Pressure Humidity
00:00 +19°C° 0.2 mm 2 mps 613 mmHg 64%
01:00 +19°C° 0.2 mm 2 mps 612 mmHg 64%
02:00 +19°C° 0.2 mm 2 mps 612 mmHg 65%
03:00 +19°C° 0.2 mm 1 mps 612 mmHg 66%
04:00 +19°C° 0.2 mm 1 mps 612 mmHg 67%
05:00 +19°C° 0.2 mm 1 mps 612 mmHg 68%
06:00 +20°C° 0.1 mm 1 mps 613 mmHg 63%
07:00 +21°C° 0.1 mm 1 mps 613 mmHg 58%
08:00 +23°C° 0.1 mm 1 mps 614 mmHg 53%
09:00 +24°C° 0 mm 1 mps 614 mmHg 46%
10:00 +26°C° 0 mm 1 mps 614 mmHg 40%
11:00 +27°C° 0 mm 1 mps 614 mmHg 34%
12:00 +28°C° 0 mm 1 mps 614 mmHg 29%
13:00 +29°C° 0 mm 2 mps 614 mmHg 25%
14:00 +30°C° 0 mm 2 mps 613 mmHg 21%
15:00 +30°C° 0 mm 2 mps 613 mmHg 21%
16:00 +30°C° 0 mm 2 mps 612 mmHg 21%
17:00 +30°C° 0 mm 3 mps 612 mmHg 21%
18:00 +28°C° 0.2 mm 2 mps 612 mmHg 28%
19:00 +26°C° 0.2 mm 1 mps 611 mmHg 35%
20:00 +21°C° 0.2 mm 0 mps 611 mmHg 42%
21:00 +23°C° 0 mm 1 mps 611 mmHg 42%
22:00 +24°C° 0 mm 2 mps 612 mmHg 41%
23:00 +24°C° 0 mm 3 mps 612 mmHg 40%

16 May, Sunday

Time Temperature Precipitation Wind Pressure Humidity
00:00 +22°C° 0 mm 3 mps 612 mmHg 42%
01:00 +23°C° 0 mm 2 mps 612 mmHg 44%
02:00 +21°C° 0 mm 2 mps 611 mmHg 47%
03:00 +21°C° 0 mm 2 mps 611 mmHg 49%
04:00 +20°C° 0 mm 2 mps 612 mmHg 52%
05:00 +20°C° 0 mm 2 mps 612 mmHg 54%
06:00 +21°C° 0 mm 2 mps 612 mmHg 49%
07:00 +23°C° 0 mm 2 mps 613 mmHg 44%
08:00 +25°C° 0 mm 2 mps 614 mmHg 39%
09:00 +26°C° 0 mm 2 mps 614 mmHg 36%
10:00 +27°C° 0 mm 1 mps 614 mmHg 33%
11:00 +28°C° 0 mm 1 mps 614 mmHg 30%
12:00 +29°C° 0 mm 1 mps 614 mmHg 27%
13:00 +30°C° 0 mm 1 mps 614 mmHg 24%
14:00 +31°C° 0 mm 1 mps 613 mmHg 21%
15:00 +31°C° 0 mm 2 mps 613 mmHg 20%
16:00 +31°C° 0 mm 2 mps 613 mmHg 20%
17:00 +31°C° 0 mm 3 mps 612 mmHg 19%
18:00 +30°C° 0 mm 2 mps 612 mmHg 22%
19:00 +29°C° 0 mm 2 mps 612 mmHg 24%
20:00 +28°C° 0 mm 2 mps 612 mmHg 26%
21:00 +27°C° 0 mm 3 mps 612 mmHg 28%
22:00 +26°C° 0 mm 4 mps 612 mmHg 30%
23:00 +25°C° 0 mm 5 mps 612 mmHg 32%

17 May, Monday

Time Temperature Precipitation Wind Pressure Humidity
00:00 +23°C° 0 mm 4 mps 612 mmHg 35%
01:00 +23°C° 0 mm 4 mps 612 mmHg 37%
02:00 +22°C° 0 mm 3 mps 611 mmHg 40%
03:00 +23°C° 0 mm 2 mps 611 mmHg 44%
04:00 +21°C° 0 mm 2 mps 611 mmHg 48%
05:00 +21°C° 0 mm 1 mps 611 mmHg 52%
06:00 +23°C° 0 mm 2 mps 612 mmHg 47%
07:00 +24°C° 0 mm 2 mps 613 mmHg 41%
08:00 +25°C° 0 mm 2 mps 613 mmHg 36%
09:00 +26°C° 0 mm 2 mps 614 mmHg 33%
10:00 +28°C° 0 mm 2 mps 614 mmHg 30%
11:00 +29°C° 0 mm 2 mps 614 mmHg 27%
12:00 +30°C° 0 mm 2 mps 614 mmHg 24%
13:00 +31°C° 0 mm 2 mps 613 mmHg 22%
14:00 +31°C° 0 mm 2 mps 613 mmHg 20%
15:00 +31°C° 0 mm 3 mps 613 mmHg 20%
16:00 +31°C° 0 mm 3 mps 612 mmHg 19%
17:00 +31°C° 0 mm 3 mps 612 mmHg 19%
18:00 +30°C° 0 mm 3 mps 612 mmHg 22%
19:00 +29°C° 0 mm 3 mps 612 mmHg 26%
20:00 +28°C° 0 mm 2 mps 612 mmHg 29%
21:00 +27°C° 0 mm 3 mps 612 mmHg 29%
22:00 +27°C° 0 mm 3 mps 612 mmHg 29%
23:00 +26°C° 0 mm 3 mps 612 mmHg 29%
Show more

We Need Your Consent

Meteoprog and our Service Providers may store and access personal data such as cookies, device identifiers or other similar technologies on your device and process such data to personalise content and ads, as well as provide social media features and to analyse the traffic.

  • Store and/or access information on your device

    Cookies, device identifiers or other information can be stored or accessed on your device for the purposes indicated above.

  • Personalised ads and content, ad and content measurement, audience insights, and products development

    Ads and content can be personalised based on a profile. More data can be added to better personalise ads and content. Ad and content performance can be measured. Insights about the audience who saw the ads and content can be derived. Such data can be used to develop or improve user’s experience, systems and software.

By clicking ‘I Agree’ you will allow the use of indicated cookies, device identifiers, web beacons or other similar technologies. Your settings can be changed in the browser on your device.

For certain purposes, legitimate interests may be relied on, rather than consent. You can read more about this in our Privacy and Cookie Policy.